[[{"header":{"parameterUnit":"m.s-1","parameterCategory":1,"la1":30.2991,"la2":30.254,"lo1":-89.0895,"lo2":-89.0444,"dy":0.0017,"dx":0.0017,"nx":28,"ny":28,"refTime":"2025-05-15T09:00:00:Z","depth":0,"parameterNumber":2,"parameterNumberName":"U-component_of_WINDS"},"data":[0,0,0,0,0,0,0,0,0,0,0,0,0,0,0,0,0,0,0,0,0,0,0,0,0,0,0,0,0,0,0,0,0,0,0,0,0,0,0,0,0,0,0,0,0,0,0,0,0,0,0,0,0,0,0,0,0,0,1.2072,1.2072,0,1.207,1.207,1.207,1.2028,1.2027,1.2026,1.2025,1.2023,1.2024,1.2025,0,0,0,0,0,0,0,0,0,0,0,0,0,1.2037,1.2037,1.2072,1.2072,1.2072,1.207,1.207,1.207,1.2028,1.2027,1.2026,1.2025,1.2023,1.2024,1.2025,0,0,0,0,0,0,0,0,0,0,0,0,0,1.2045,1.2038,1.2072,1.2051,1.2049,1.207,1.207,1.207,1.2029,1.2027,1.2025,1.2024,1.2023,1.2024,1.2025,1.2067,0,0,1.203,1.203,0,0,0,0,0,0,0,0,1.2045,1.2047,1.2054,1.2052,1.205,1.2048,1.2057,1.2069,1.2029,1.2036,1.2025,1.2023,1.2033,1.2033,1.2037,1.2067,1.2067,1.203,1.2031,1.2031,1.2032,0,0,0,0,0,0,0,1.2044,1.2046,1.2071,1.2054,1.2052,1.2041,1.204,1.2059,1.2044,1.2036,1.2033,1.2033,1.2031,1.2035,1.2036,1.2067,1.203,1.2031,1.2032,1.2033,1.2128,1.213,0,0,0,0,0,0,1.2047,1.2046,1.2071,1.2071,1.2043,1.2043,1.2042,1.205,1.2043,1.2041,1.2034,1.2031,1.2034,1.2035,1.2036,1.2082,1.2031,1.2033,1.2034,1.2126,1.2128,1.213,0,0,0,0,0,0,1.2046,1.2049,1.2071,1.2058,1.206,1.2045,1.2055,1.2051,1.2055,1.2042,1.2039,1.2041,1.2032,1.2034,1.2059,1.2082,1.2033,1.2035,1.2124,1.2127,1.2129,1.2176,0,0,0,0,0,0,1.2045,1.2049,1.2066,1.2059,1.2061,1.2095,1.2056,1.2052,1.2058,1.2053,1.2048,1.2046,1.2031,1.2057,1.206,1.2083,1.2036,1.2122,1.2125,1.2128,1.2173,1.218,1.2186,0,0,0,0,0,1.2044,1.208,1.2067,1.207,1.2081,1.2097,1.2098,1.2081,1.206,1.2075,1.2067,1.2046,1.2079,1.206,1.2063,1.2087,1.2121,1.2125,1.2128,1.217,1.2179,1.2186,0,0,0,0,0,0,1.2091,1.2079,1.2064,1.2099,1.2099,1.209,1.2109,1.2091,1.2098,1.2093,1.2071,1.207,1.2098,1.2095,1.2074,1.2125,1.2096,1.21,1.2126,1.2135,1.2141,1.2141,1.2037,0,0,0,0,0,1.2105,1.2119,1.2108,1.2139,1.214,1.2125,1.2131,1.2117,1.2117,1.2117,1.211,1.211,1.212,1.2127,1.2136,1.2172,1.2169,1.2189,1.2196,1.2202,1.2206,1.2222,1.223,1.2142,1.2142,1.2142,0,0,1.2135,1.213,1.214,1.2148,1.2147,1.2161,1.2125,1.2142,1.2152,1.2119,1.2142,1.2137,1.2135,1.2165,1.2178,1.2163,1.2229,1.2207,1.2211,1.2212,1.2227,1.2235,1.2243,1.2145,1.2144,1.2144,0,0,1.2196,1.2194,1.2219,1.2218,1.2216,1.2205,1.2211,1.2204,1.2199,1.2221,1.2196,1.2207,1.2225,1.2224,1.2226,1.2284,1.2264,1.2288,1.2324,1.234,1.2347,1.2353,1.2371,1.2379,1.2292,1.2292,1.2292,0,1.2233,1.2254,1.2234,1.2252,1.2255,1.2225,1.2249,1.2249,1.225,1.2253,1.2236,1.2256,1.2254,1.2282,1.2295,1.2299,1.2303,1.2288,1.2347,1.2353,1.2358,1.2376,1.2383,1.2295,1.2294,1.2294,1.2294,0,1.2298,1.2313,1.2333,1.2334,1.2339,1.2361,1.2343,1.2351,1.2336,1.2326,1.2348,1.2343,1.2349,1.2355,1.2341,1.238,1.2371,1.2351,1.2321,1.237,1.2386,1.2393,1.2299,1.2298,1.2297,1.2296,0,0,1.239,1.2378,1.2386,1.2384,1.2379,1.2389,1.2408,1.2413,1.2419,1.2421,1.2435,1.245,1.243,1.2433,1.2418,1.2433,1.2476,1.241,1.241,1.2422,1.2516,1.253,1.2539,1.2463,1.2464,1.2465,1.2516,0,1.2448,1.2479,1.2461,1.2494,1.2506,1.2477,1.2492,1.249,1.2481,1.2489,1.2479,1.2489,1.2465,1.2465,1.2478,1.2468,1.2494,1.2464,1.2474,1.2475,1.2475,1.2547,1.2563,1.2611,1.2522,1.2523,1.2524,0,1.252,1.2522,1.2557,1.2547,1.2551,1.2566,1.2567,1.2576,1.2572,1.2564,1.2566,1.2547,1.2563,1.2534,1.2555,1.2535,1.2538,1.2533,1.2534,1.2534,1.2502,1.2548,1.2626,1.2633,1.2534,1.2533,1.2533,0,1.2581,1.2593,1.2615,1.2615,1.2604,1.2615,1.261,1.2605,1.2608,1.261,1.2611,1.2615,1.2617,1.262,1.2602,1.2583,1.2624,1.2594,1.2617,1.2618,1.2627,1.2627,1.2706,1.2631,1.2631,1.2631,1.2631,0,1.2646,1.2668,1.2642,1.2655,1.2678,1.2656,1.2679,1.2672,1.2666,1.2677,1.2652,1.2662,1.2638,1.2646,1.2632,1.265,1.2651,1.2645,1.2641,1.2646,1.2647,1.2647,1.2643,1.2633,1.2632,1.2632,1.2632,0,1.2719,1.2702,1.2723,1.271,1.2707,1.2725,1.2713,1.2724,1.2712,1.2726,1.2728,1.271,1.2717,1.2699,1.2704,1.2695,1.272,1.2712,1.2722,1.2719,1.2742,1.2739,1.2824,1.2833,1.2753,1.2754,1.2755,0,1.2761,1.2777,1.2765,1.277,1.2766,1.2775,1.2778,1.2756,1.276,1.2755,1.2766,1.2771,1.2774,1.2786,1.2773,1.2776,1.2766,1.2796,1.2767,1.2771,1.2765,1.2764,1.2764,1.2802,1.2803,1.2803,1.2804,0,1.2838,1.2828,1.2833,1.2834,1.2838,1.2839,1.2837,1.2843,1.2819,1.2824,1.2831,1.2833,1.2837,1.2841,1.2841,1.2836,1.2816,1.2813,1.2818,1.2824,1.2828,1.2824,1.2737,1.2811,1.2811,1.281,1.281,1.2809,1.2895,1.2907,1.2899,1.2905,1.2901,1.29,1.2909,1.2898,1.2903,1.2904,1.2891,1.2899,1.2892,1.289,1.2886,1.2892,1.2879,1.2887,1.2889,1.2891,1.2894,1.2828,1.2892,1.2892,1.2892,1.2892,1.2892,0,1.2968,1.2962,1.2967,1.2965,1.2969,1.2949,1.2946,1.295,1.2958,1.2954,1.2956,1.2962,1.2966,1.2953,1.2954,1.2961,1.2952,1.2962,1.2961,1.296,1.2907,1.2901,1.297,1.297,1.297,1.297,1.297,1.297,1.3007,1.3025,1.3014,1.3029,1.3022,1.303,1.303,1.3028,1.3023,1.3031,1.3034,1.3025,1.3016,1.3016,1.3018,1.3014,1.3015,1.3029,1.3021,1.2972,1.2964,1.2957,1.2951,1.3029,1.303,1.3074,1.3074,1.3074]},{"header":{"parameterUnit":"m.s-1","parameterCategory":1,"la1":30.2991,"la2":30.254,"lo1":-89.0895,"lo2":-89.0444,"dy":0.0017,"dx":0.0017,"nx":28,"ny":28,"refTime":"2025-05-15T09:00:00:Z","depth":0,"parameterNumber":3,"parameterNumberName":"V-component_of_WINDS"},"data":[0,0,0,0,0,0,0,0,0,0,0,0,0,0,0,0,0,0,0,0,0,0,0,0,0,0,0,0,0,0,0,0,0,0,0,0,0,0,0,0,0,0,0,0,0,0,0,0,0,0,0,0,0,0,0,0,0,0,6.4161,6.4162,0,6.4223,6.4223,6.4224,6.4169,6.4167,6.4164,6.4162,6.4219,6.4223,6.4226,0,0,0,0,0,0,0,0,0,0,0,0,0,6.399,6.3994,6.4161,6.4162,6.4163,6.4223,6.4223,6.4224,6.4169,6.4167,6.4164,6.4161,6.4218,6.4222,6.4227,0,0,0,0,0,0,0,0,0,0,0,0,0,6.4059,6.3995,6.4161,6.4143,6.4142,6.4222,6.4223,6.4224,6.417,6.4167,6.4163,6.416,6.4217,6.4222,6.4227,6.4327,0,0,6.4244,6.4246,0,0,0,0,0,0,0,0,6.4055,6.4065,6.4145,6.4144,6.4143,6.4185,6.4184,6.4259,6.4171,6.4159,6.4162,6.4158,6.421,6.4216,6.4235,6.433,6.4332,6.4244,6.4247,6.425,6.4251,0,0,0,0,0,0,0,6.4051,6.4062,6.4185,6.4146,6.4145,6.4129,6.4135,6.4198,6.4202,6.416,6.4156,6.4164,6.4209,6.423,6.4235,6.4333,6.4244,6.4249,6.4252,6.4254,6.4513,6.4516,0,0,0,0,0,0,6.4049,6.4059,6.4183,6.4187,6.409,6.4135,6.4142,6.4175,6.4202,6.4203,6.4167,6.4162,6.4222,6.4229,6.4237,6.4356,6.425,6.4255,6.4258,6.4509,6.4514,6.4518,0,0,0,0,0,0,6.4045,6.406,6.4181,6.4122,6.4136,6.4142,6.4179,6.4178,6.4198,6.4207,6.4207,6.4188,6.422,6.423,6.4306,6.4357,6.4257,6.4262,6.4505,6.4511,6.4516,6.4594,0,0,0,0,0,0,6.4041,6.4059,6.4099,6.4124,6.414,6.425,6.4182,6.4181,6.4208,6.4202,6.4226,6.4227,6.4218,6.4298,6.4311,6.4362,6.4266,6.45,6.4508,6.4514,6.4587,6.4601,6.4614,0,0,0,0,0,6.4035,6.4117,6.4101,6.4117,6.419,6.4253,6.4262,6.4252,6.4213,6.4251,6.4257,6.4226,6.4349,6.4306,6.432,6.4374,6.4497,6.4506,6.4513,6.4581,6.4598,6.4613,0,0,0,0,0,0,6.4096,6.412,6.4103,6.4196,6.4224,6.4244,6.4293,6.4271,6.4308,6.43,6.4283,6.4289,6.4369,6.4379,6.4331,6.4472,6.4417,6.4428,6.4463,6.448,6.4493,6.4489,6.4271,0,0,0,0,0,6.4121,6.4173,6.419,6.4271,6.4286,6.4287,6.4315,6.4304,6.4331,6.4341,6.4352,6.4378,6.4422,6.4451,6.4493,6.4588,6.4592,6.4632,6.4645,6.4657,6.4666,6.4717,6.4734,6.4545,6.4545,6.4544,0,0,6.4172,6.4192,6.4225,6.4284,6.4304,6.4356,6.4297,6.4355,6.4393,6.4349,6.4422,6.4431,6.4458,6.4545,6.4583,6.4555,6.472,6.4667,6.4676,6.468,6.4727,6.4745,6.4761,6.455,6.4549,6.4548,0,0,6.4292,6.4313,6.4383,6.4404,6.4436,6.4436,6.4453,6.4477,6.4482,6.4555,6.4524,6.4568,6.4644,6.4665,6.4685,6.4814,6.4786,6.4827,6.4898,6.4947,6.4962,6.4975,6.502,6.5036,6.4837,6.4837,6.4837,0,6.4351,6.4431,6.442,6.4481,6.4507,6.4472,6.4541,6.4562,6.4604,6.4622,6.4591,6.4687,6.4703,6.4793,6.4824,6.4842,6.4859,6.4824,6.4961,6.4974,6.4986,6.5029,6.5046,6.4842,6.4842,6.4841,6.4841,0,6.4501,6.4557,6.4609,6.4653,6.4685,6.475,6.4747,6.478,6.4767,6.477,6.4844,6.4862,6.4906,6.4927,6.4913,6.5015,6.4997,6.4964,6.4907,6.5009,6.5049,6.5065,6.4849,6.4847,6.4846,6.4845,0,0,6.4661,6.47,6.4719,6.4739,6.4771,6.4813,6.4875,6.492,6.4948,6.4979,6.5029,6.5095,6.5065,6.5089,6.5077,6.5121,6.522,6.5082,6.5083,6.5107,6.5332,6.5356,6.5375,6.5203,6.5206,6.5208,6.5329,0,6.4782,6.4892,6.4885,6.4988,6.5038,6.5006,6.506,6.5084,6.5089,6.5131,6.5134,6.5182,6.5139,6.5153,6.5194,6.5199,6.5265,6.5191,6.5248,6.525,6.5242,6.5396,6.5422,6.5535,6.5345,6.5347,6.5349,0,6.4937,6.4976,6.5085,6.511,6.513,6.5179,6.522,6.5261,6.5287,6.5287,6.5314,6.5296,6.5356,6.53,6.5382,6.5332,6.5354,6.536,6.5364,6.5369,6.5305,6.5403,6.5571,6.5588,6.5374,6.5372,6.537,0,6.5042,6.5121,6.5196,6.5214,6.5245,6.528,6.5294,6.5318,6.5345,6.538,6.5397,6.5438,6.546,6.5491,6.5484,6.5443,6.5568,6.551,6.5568,6.5568,6.5595,6.5593,6.5768,6.5611,6.5611,6.5611,6.561,0,6.5177,6.5245,6.5243,6.529,6.5364,6.5354,6.5427,6.5436,6.5458,6.5504,6.5478,6.5521,6.5509,6.5551,6.5545,6.5614,6.5624,6.5624,6.5622,6.5627,6.5626,6.564,6.5632,6.5615,6.5614,6.5613,6.5612,0,6.5306,6.5309,6.5388,6.5412,6.5419,6.5473,6.5492,6.5535,6.5537,6.5596,6.5609,6.5613,6.5661,6.5657,6.5711,6.5707,6.5791,6.578,6.5783,6.578,6.5838,6.5832,6.6027,6.6052,6.588,6.5882,6.5883,0,6.5392,6.5444,6.5474,6.5504,6.5521,6.5569,6.5598,6.5589,6.562,6.5654,6.5692,6.5739,6.5776,6.5854,6.586,6.5901,6.589,6.5955,6.5895,6.5899,6.589,6.5887,6.5891,6.5967,6.5969,6.597,6.5971,0,6.5544,6.5542,6.5586,6.563,6.5665,6.5699,6.5729,6.5755,6.5749,6.5784,6.5835,6.5863,6.5919,6.5965,6.6004,6.6016,6.5993,6.599,6.6006,6.601,6.601,6.601,6.5814,6.5986,6.5984,6.5983,6.5982,6.5982,6.5653,6.5697,6.5726,6.5775,6.5797,6.5827,6.5868,6.5877,6.5919,6.5965,6.5957,6.6013,6.6038,6.6088,6.6104,6.6147,6.6123,6.6145,6.6151,6.6156,6.6163,6.6004,6.6154,6.6154,6.6153,6.6153,6.6153,0,6.5803,6.582,6.5865,6.591,6.5948,6.5925,6.5957,6.599,6.6041,6.6067,6.6104,6.6161,6.6206,6.6216,6.6259,6.6291,6.6281,6.6302,6.6299,6.6302,6.6182,6.6164,6.6309,6.6309,6.6309,6.6309,6.6309,6.6309,6.5885,6.5959,6.5961,6.6045,6.606,6.6117,6.6138,6.6164,6.6185,6.6251,6.6289,6.6296,6.6315,6.6358,6.6398,6.6399,6.6416,6.6441,6.6438,6.6326,6.631,6.6295,6.6279,6.6445,6.6445,6.6554,6.6555,6.6556]}]]